Location: Celina Division
(33.3022°N, 96.7580°W)
Time: 03:28:37
(UTC+00:00)

NOAA 18 - Pass Details

Date: 06 April 2023
Orbit: 838 x 860 km, 98.9° (Epoch: 07 June)

Event Time Altitude Azimuth Distance (km) Brightness Sun altitude
Exits shadow 03:05:09 10° 36° (NE) 2,469 7.5 -27.4°
Drops below altitude 10° 03:05:20 10° 35° (NE) 2,500 7.6 -27.5°
Sets 03:08:58 0° 10° (N) 3,441 8.6 -28.1°
